No identification:

 

2000 CE59                                                                   

Epoch 2000 Feb. 26.0 TT = JDT 2451600.5                 Nakano

M 265.16129              (2000.0)            P               Q

n   0.81135323     Peri.  307.66222     -0.04950150     +0.98894437

a   1.1384905      Node   318.81862     -0.83644454     -0.11752938

e   0.1671235      Incl.   12.25653     -0.54581145     +0.09042056

P   1.21           H   20.2           G   0.15           U   6

Residuals in seconds of arc 

K0024  704  0.3+  0.2-    K0026  422  0.8+  0.4+    K002C  104  0.1-  0.1+  

K0024  704  0.2+  0.2-    K0027  422  0.6+  0.0     K002C  104  0.6+  0.8-  

K0024  704  0.7-  1.0+    K0027  422  0.1+  0.2+    K002D  587  0.3+  0.5+  

K0024  704  0.6+  0.3+    K0027  422  0.9-  0.4+    K002D  587  0.2-  0.6+  

K0025  747  0.3-  0.4+    K0027  557  0.2+  0.1+    K002M  595  0.4-  0.4-  

K0025  747  0.1-  0.3+    K0027  557  0.4-  0.2-    K002M  595  0.2+  0.1+  

K0025  747  0.3+  0.2-    K0027  557  0.5-  0.2-    K002M  595  0.2+  0.5+  

K0025  739 (2.7+  2.1+)   K0028  711  0.2-  0.7-    K002O  413  0.0   0.5-  

K0025  739  0.7+  0.3+    K0028  711  0.4+  0.4-    K002O  413  0.1+  0.5-  

K0025  739 (2.4+  3.3+)   K0028  711  0.7+  0.1-    K002O  413  0.1-  0.2-  

K0025  651  0.2+  0.5-    K0028  704  0.4+  0.1+    K002O  104  1.2-  1.2-  

K0025  651  0.0   0.7-    K0028  704  0.1+  0.8+    K002O  104  1.2-  1.3-  

K0025  422  0.8-  0.2+    K0028  704  0.2+  0.2+    K002O  104  0.5-  0.9-  

K0025  422  0.1+  0.4-    K0028  704  0.1-  0.5+    K002P  413  0.3+  0.4+  

K0025  422  0.5+  0.2+    K0028  704  0.1+  0.9+    K002P  413  0.1+  0.2+  

K0025  402  0.3-  0.6-    K0028  422  0.0   0.1+    K002P  413  0.3+  0.3+  

K0025  402  0.2+  0.6-    K0029  413  0.3+  0.2-    K002Q  413  0.1+  0.3+  

K0025  402  0.3+  0.2-    K0029  413  0.3+  0.3-    K002Q  413  0.1+  0.1+  

K0025  402  0.5-  0.6-    K0029  595  0.8-  0.2-    K002Q  540  0.5-  0.3+  

K0025  046  1.1-  1.0+    K0029  595  0.8-  0.2+    K002Q  540  0.0   0.4+  

K0025  046  1.0-  1.3+    K0029  595  0.7-  0.3-    K002Q  540  0.2-  0.4+  

K0025  046  0.4-  0.5+    K002A  704  0.5+  0.1+    K002S  747  0.5+  0.1-  

K0025  046  0.5-  1.0+    K002A  704  0.6+  0.2+    K002S  747  0.4+  0.2-  

K0025  046  0.7-  0.4+    K002A  704  0.9+  0.6-    K002S  747  0.1+  0.3+  

K0025  611  1.7-  0.4+    K002A  658  0.1+  0.2-    K002S  747  0.4+  0.0   

K0026  557  0.2-  0.4-    K002A  658  0.2+  0.2-    K002S  046  0.9+  0.2+  

K0026  557  0.3+  0.0     K002A  658  0.5+  0.1-    K002S  046  0.7+  0.4+  

K0026  557  0.1-  0.0     K002A  540  0.1-  0.4+    K002S  046  0.4+  1.3+  

K0026  704  0.2+  0.3-    K002A  540  0.5-  0.2-    K002S  046  0.6-  0.9+  

K0026  704  0.6+  0.4-    K002A  540  1.0+  0.6+    K0033  474  0.1+  0.1+  

K0026  704  0.6+  0.5-    K002A  540  0.4-  0.1-    K0033  474  0.2-  0.0   

K0026  704  0.6+  0.3-    K002A  108 (5.0+  3.9+)   K0033  474  0.0   0.3+  

K0026  704  0.4+  0.0     K002A  108 (3.4+  4.3+)   K0033  474  0.2-  0.1+  

K0026  858  0.4+  0.0     K002C  046  0.1-  0.1-    K0034  118  0.2+  1.2-  

K0026  858  0.2+  0.3-    K002C  046  0.0   0.1+    K0034  118  0.0   0.2-  

K0026  858  0.3+  0.3-    K002C  046  0.1+  0.6+    K0034  118  0.6+  0.9-  

K0026  422  0.4-  0.2-    K002C  046  0.3+  0.1-    K0036  360  0.4-  0.3+  

K0026  422  0.4-  0.5-    K002C  046  0.5-  0.7-    K0036  360  0.4-  0.3+  

K0026  422  0.1+  0.6-    K002C  104  0.4-  0.6-    K0036  360  0.2-  0.0   



NAKANO

         **** Don't distribute anyone except personal use only ****

                (C) Copyright 2000 OAA/ComputingSection

write mail from CFAD0::NAKANO on 2000-03-08 04:10:59(JST).

 





–ß‚è‚Ü‚·B